Zurück zum Katalog

DELTA 1 DEB

AktivSSO
NORAD 42634·DEBRIS·🇺🇸 United States

Gestartet Jun 12, 1975 von Vandenberg Space Force Base

Loading…

Nächste Überflüge (nächste 24 Stunden)

TLE

AktuellSource: Space-Track

Epoche: Sep 14, 2026, 08:12 UTC

1 42634U 75052LT  26257.34211885  .00000065  00000-0  21022-3 0  9993
2 42634  99.7391 118.3072 0062547  65.4466 295.3161 13.34427469624075

Verfolge DELTA 1 DEB in Echtzeit mit AllMySat

Download on the App Store